Milwaukee, WI

7:58 PM CST on November 21, 2019 (GMT -0600)
Gen Mitchell International

Weather History for KMKE - September, 2019

Change the Weather History Date:

Monday, September 2, 2019

  Actual Average Record
Temperature  
Mean Temperature 72 °F 68 °F  
Max Temperature 80 °F 76 °F 96 °F (1953)
Min Temperature 63 °F 60 °F 43 °F (1967)
Degree Days  
Heating Degree Days 0 1  
Month to date heating degree days 0 2  
Since 1 July heating degree days 2 28  
Cooling Degree Days 6 4  
Month to date cooling degree days 9 9  
Year to date cooling degree days 615 574  
Growing Degree Days 22 (Base 50)    
Moisture  
Dew Point 62 °F    
Average Humidity 77    
Maximum Humidity 87    
Minimum Humidity 58    
Precipitation  
Precipitation 0.00 in 0.10 in 1.45 in (1934)
Month to date precipitation T 0.21  
Year to date precipitation 28.41 24.39  
Snow  
Snow 0.00 in 0.00 in 0.00 in (2018)
Month to date snowfall 0.0 0.0  
Since 1 July snowfall 0.0 0.0  
Since 1 September snowfall 0.0 0.0  
Snow Depth 0.00 in    
Sea Level Pressure  
Sea Level Pressure 30.07 in    
Wind  
Wind Speed 6 mph ()    
Max Wind Speed 13 mph    
Max Gust Speed 19 mph    
Visibility 10.0 miles    
Events      
T = Trace of Precipitation, MM = Missing Value Source: Averaged Metar Reports

Daily Weather History Graph

Daily Weather History Graph

Search for Another Location

Airport or City:

Astronomy

Sep. 02, 2019 Rise Set
Actual Time 6:16 AM CDT 7:24 PM CDT
Civil Twilight 5:47 AM CDT 7:53 PM CDT
Nautical Twilight 5:12 AM CDT 8:28 PM CDT
Astronomical Twilight 4:36 AM CDT 9:05 PM CDT
Moon 10:04 AM CDT (9/2) 9:40 PM CDT (9/2)
Length of Visible Light 14h 06m
Length of Day
13h 07m
Waxing Crescent, 15% of the Moon is Illuminated
Sep 2
Waxing Crescent
Sep 5
First Quarter
Sep 13
Full
Sep 21
Last Quarter
Sep 28
New

Hourly Weather History & Observations

Time (CDT) Temp. Dew Point Humidity Pressure Visibility Wind Dir Wind Speed Gust Speed Precip Events Conditions
12:52 AM 64.0 °F 60.1 °F 87% 30.07 in 10.0 mi SSW 4.6 mph - N/A   Scattered Clouds
1:52 AM 64.0 °F 60.1 °F 87% 30.06 in 10.0 mi SW 4.6 mph - N/A   Partly Cloudy
2:52 AM 64.9 °F 61.0 °F 87% 30.06 in 10.0 mi West 5.8 mph - N/A   Scattered Clouds
3:52 AM 64.9 °F 60.1 °F 84% 30.06 in 10.0 mi West 6.9 mph - N/A   Mostly Cloudy
4:52 AM 64.9 °F 60.1 °F 84% 30.07 in 10.0 mi West 5.8 mph - N/A   Mostly Cloudy
5:52 AM 64.9 °F 60.1 °F 84% 30.07 in 10.0 mi West 5.8 mph - N/A   Mostly Cloudy
6:52 AM 66.0 °F 60.1 °F 81% 30.09 in 10.0 mi West 8.1 mph - N/A   Mostly Cloudy
7:52 AM 68.0 °F 61.0 °F 78% 30.09 in 10.0 mi West 3.5 mph - N/A   Scattered Clouds
8:52 AM 71.1 °F 62.1 °F 73% 30.09 in 10.0 mi West 8.1 mph - N/A   Partly Cloudy
9:52 AM 75.0 °F 62.1 °F 64% 30.09 in 10.0 mi WNW 9.2 mph - N/A   Partly Cloudy
10:52 AM 77.0 °F 63.0 °F 62% 30.09 in 10.0 mi WNW 4.6 mph - N/A   Scattered Clouds
11:52 AM 78.1 °F 63.0 °F 60% 30.08 in 10.0 mi NW 5.8 mph - N/A   Mostly Cloudy
12:52 PM 75.0 °F 64.0 °F 69% 30.08 in 10.0 mi East 6.9 mph - N/A   Mostly Cloudy
1:52 PM 72.0 °F 63.0 °F 73% 30.08 in 10.0 mi ENE 9.2 mph - N/A   Mostly Cloudy
2:52 PM 70.0 °F 61.0 °F 73% 30.07 in 10.0 mi East 10.4 mph - N/A   Mostly Cloudy
3:52 PM 71.1 °F 62.1 °F 73% 30.06 in 10.0 mi East 11.5 mph - N/A   Mostly Cloudy
4:52 PM 70.0 °F 62.1 °F 76% 30.07 in 10.0 mi East 9.2 mph - N/A   Mostly Cloudy
5:52 PM 69.1 °F 62.1 °F 78% 30.07 in 10.0 mi East 6.9 mph - N/A   Mostly Cloudy
6:52 PM 69.1 °F 62.1 °F 78% 30.06 in 10.0 mi ESE 6.9 mph - N/A   Mostly Cloudy
7:52 PM 68.0 °F 62.1 °F 81% 30.06 in 10.0 mi East 6.9 mph - N/A   Mostly Cloudy
8:52 PM 68.0 °F 62.1 °F 81% 30.05 in 10.0 mi East 6.9 mph - N/A   Mostly Cloudy
9:52 PM 68.0 °F 62.1 °F 81% 30.04 in 10.0 mi ESE 6.9 mph - N/A   Mostly Cloudy
10:52 PM 68.0 °F 62.1 °F 81% 30.02 in 10.0 mi SE 8.1 mph - N/A   Mostly Cloudy
11:52 PM 68.0 °F 62.1 °F 81% 30.00 in 10.0 mi SE 9.2 mph - N/A   Mostly Cloudy